Cypress Lake Weather Center

Moon Phase Calendar



Cypress Lake Water Level
Online Cameras

 


      

Current Conditions in Benton
6/13/2021 8:26:33 AM

79°F
Feels Like 79
Clouds
Humidity
93%
Pressure
29.94"
Wind
4.1 mph (NNW)
Dew Point
77°F
UV Index
1/10 (Low)
Visibility
6 mi

Hourly Forecast

Date & Time Sun, Jun 13
8:00 AM
Sun, Jun 13
9:00 AM
Sun, Jun 13
10:00 AM
Sun, Jun 13
11:00 AM
Sun, Jun 13
12:00 PM
Sun, Jun 13
1:00 PM
Sun, Jun 13
2:00 PM
Sun, Jun 13
3:00 PM
Sun, Jun 13
4:00 PM
Sun, Jun 13
5:00 PM
Sun, Jun 13
6:00 PM
Sun, Jun 13
7:00 PM
Sun, Jun 13
8:00 PM
Sun, Jun 13
9:00 PM
Sun, Jun 13
10:00 PM
Sun, Jun 13
11:00 PM
Mon, Jun 14
12:00 AM
Mon, Jun 14
1:00 AM
Mon, Jun 14
2:00 AM
Mon, Jun 14
3:00 AM
Mon, Jun 14
4:00 AM
Mon, Jun 14
5:00 AM
Mon, Jun 14
6:00 AM
Mon, Jun 14
7:00 AM
Mon, Jun 14
8:00 AM
Mon, Jun 14
9:00 AM
Mon, Jun 14
10:00 AM
Mon, Jun 14
11:00 AM
Mon, Jun 14
12:00 PM
Mon, Jun 14
1:00 PM
Mon, Jun 14
2:00 PM
Mon, Jun 14
3:00 PM
Mon, Jun 14
4:00 PM
Mon, Jun 14
5:00 PM
Mon, Jun 14
6:00 PM
Mon, Jun 14
7:00 PM
Mon, Jun 14
8:00 PM
Mon, Jun 14
9:00 PM
Mon, Jun 14
10:00 PM
Mon, Jun 14
11:00 PM
Tue, Jun 15
12:00 AM
Tue, Jun 15
1:00 AM
Tue, Jun 15
2:00 AM
Tue, Jun 15
3:00 AM
Tue, Jun 15
4:00 AM
Tue, Jun 15
5:00 AM
Tue, Jun 15
6:00 AM
Tue, Jun 15
7:00 AM
Condition
Clouds

Clouds

Clouds

Clouds

Clouds

Clouds

Rain

Rain

Clouds

Clouds

Clouds

Clouds

Clouds

Clouds

Rain

Rain

Clouds

Clouds

Clouds

Clouds

Clouds

Clouds

Clouds

Clouds

Clouds

Clouds

Clouds

Clouds

Clouds

Clouds

Clouds

Clouds

Clouds

Clouds

Clouds

Clouds

Clear

Clear

Clear

Clear

Clear

Clear

Clear

Clear

Clear

Clear

Clear

Clear
Temperature 79°F80°F82°F86°F90°F95°F95°F95°F94°F95°F93°F89°F84°F81°F76°F74°F74°F72°F71°F72°F71°F72°F72°F74°F77°F82°F85°F88°F91°F93°F94°F95°F96°F94°F92°F88°F82°F79°F77°F76°F75°F74°F73°F72°F72°F71°F70°F71°F
Feels Like 79°F80°F90°F96°F101°F106°F105°F105°F104°F105°F104°F102°F93°F86°F77°F75°F75°F73°F72°F73°F72°F72°F73°F75°F79°F87°F92°F95°F97°F98°F99°F100°F100°F99°F98°F95°F87°F79°F78°F76°F76°F75°F74°F73°F73°F72°F71°F72°F
Cloudiness 15%15%14%12%15%22%8%6%23%22%19%17%31%23%44%36%49%57%100%100%100%100%100%100%100%93%65%72%78%82%70%46%33%25%25%21%2%9%7%6%4%4%0%0%0%0%0%0%
Visibility 6 mi6 mi6 mi6 mi6 mi6 mi6 mi6 mi6 mi6 mi6 mi6 mi6 mi6 mi6 mi6 mi6 mi6 mi6 mi6 mi6 mi6 mi6 mi6 mi6 mi6 mi6 mi6 mi6 mi6 mi6 mi6 mi6 mi6 mi6 mi6 mi6 mi6 mi6 mi6 mi6 mi6 mi6 mi6 mi6 mi6 mi6 mi6 mi
Precipitation 0%0%0%0%0%0%32%28%4%4%15%21%25%29%38%58%46%51%10%9%1%1%1%0%0%0%0%0%0%0%0%0%0%0%0%0%0%0%0%0%0%0%0%0%0%0%0%0%
Humidity 93%90%83%73%62%50%48%50%52%51%56%67%75%75%81%84%86%85%82%79%83%86%90%93%87%75%66%59%53%47%43%40%40%42%49%62%72%70%72%77%80%82%84%86%87%88%88%87%
Dew Point 77°F77°F77°F76°F75°F74°F73°F73°F74°F74°F75°F77°F75°F72°F70°F69°F69°F67°F65°F65°F66°F67°F69°F72°F73°F73°F73°F72°F71°F70°F68°F67°F68°F68°F70°F73°F72°F69°F67°F68°F68°F68°F68°F68°F68°F67°F67°F67°F
Pressure 29.94"29.94"29.94"29.94"29.94"29.91"29.91"29.88"29.88"29.85"29.85"29.85"29.83"29.85"29.91"29.91"29.91"29.91"29.91"29.91"29.91"29.91"29.94"29.94"29.97"29.97"29.97"29.97"29.94"29.94"29.91"29.91"29.88"29.88"29.88"29.88"29.91"29.91"29.94"29.97"29.97"29.97"29.97"29.97"29.97"29.97"30"30"
Wind Speed 4.1 mph3.8 mph3.6 mph4.1 mph3.7 mph2.4 mph4.4 mph7.8 mph7.7 mph8.3 mph7.3 mph3 mph3.1 mph1.8 mph4.3 mph3.1 mph1.5 mph4.8 mph4.2 mph2.6 mph3.9 mph3.6 mph5 mph5.5 mph5.8 mph6.9 mph7.5 mph7.3 mph6.7 mph6.2 mph5.1 mph5.4 mph6.1 mph7.9 mph8 mph6.1 mph5.9 mph5.9 mph5.6 mph5.3 mph5.3 mph5 mph5.2 mph4.2 mph4 mph4 mph4.5 mph4.4 mph
Wind
Direction
333°
NNW
344°
NNW

N
10°
N

N

N
304°
NW
307°
NW
321°
NW
325°
NW
327°
NNW
345°
NNW

N
174°
S
181°
S
267°
W
135°
SE
179°
S
196°
SSW
118°
ESE
50°
NE
44°
NE
42°
NE
36°
NE
33°
NNE
43°
NE
48°
NE
52°
NE
47°
NE
46°
NE
43°
NE
24°
NNE
11°
N

N

N
359°
N
18°
NNE
47°
NE
65°
ENE
82°
E
89°
E
88°
E
76°
ENE
69°
ENE
66°
ENE
51°
NE
36°
NE
43°
NE

Daily Forecast

Date High Low Precip. Humidity
Today
Jun 13

Rain
95 °F
74 °F
58%
50%
Monday
Jun 14

Clouds
96 °F
71 °F
51%
47%
Tuesday
Jun 15

Clear
95 °F
71 °F
0%
47%
Wednesday
Jun 16

Clear
96 °F
74 °F
1%
44%
Thursday
Jun 17

Rain
96 °F
74 °F
40%
49%
Friday
Jun 18

Rain
95 °F
72 °F
22%
48%
Saturday
Jun 19

Clouds
93 °F
73 °F
1%
50%
Sunday
Jun 20

Rain
86 °F
71 °F
33%
61%
Monday
Jun 21

Rain
87 °F
73 °F
88%
66%
Tuesday
Jun 22

Rain
86 °F
73 °F
24%
60%
Wednesday
Jun 23

Clouds
95 °F
72 °F
11%
55%
Thursday
Jun 24

Rain
86 °F
76 °F
100%
77%
Friday
Jun 25

Rain
93 °F
74 °F
90%
57%
Saturday
Jun 26

Rain
92 °F
75 °F
100%
57%
Sunday
Jun 27

Rain
92 °F
75 °F
100%
58%
Monday
Jun 28

Rain
93 °F
75 °F
74%
74%

Temperature 8-14 Day Outlook



Precipitation 8-14 Day Outlook




Quick Links
Cypress Lake News
Cypress Lake Photos
Cypress Lake Videos




About Us
Contact Us
Site Map
Search Site
Advertise With Us
   
Cypress-LA.LakesOnline.com
THE CYPRESS LAKE WEBSITE

Copyright 2021, Lakes Online
Privacy    |    Legal